Regional Weather Roundup
Issued by NWS Glasgow, MT

Home | Current Version | Previous Version | Text Only | Print | Product List | Glossary On
Versions: 1 2 3 4 5 6 7 8 9 10 11 12 13 14 15 16 17 18 19 20 21 22 23 24 25 26 27 28 29 30 31 32 33 34 35 36 37 38 39 40 41 42 43 44 45 46 47 48 49 50
000
ASUS45 KGGW 230415
RWRGGW
HOURLY WEATHER ROUNDUP FOR NORTHEAST MONTANA
NATIONAL WEATHER SERVICE GLASGOW MONTANA
1000 PM MDT FRI MAY 22 2015

NOTE: "FAIR" INDICATES FEW OR NO CLOUDS BELOW 12,000 FEET WITH NO
SIGNIFICANT WEATHER AND/OR OBSTRUCTIONS TO VISISBILITY.

NORTHEAST MONTANA


CITY           SKY/WX    TMP DP  RH WIND       PRES   REMARKS
GLASGOW        CLOUDY    64  41  42 E10       29.98R
WOLF POINT     MOCLDY    61  44  53 SE5       30.00R
JORDAN           N/A     64  44  48 SE13      29.97R
WINNETT          N/A     60  46  59 E7G17       N/A
SIDNEY         PTCLDY    57  36  44 CALM      30.04R
GLENDIVE       CLOUDY    61  41  48 SE7       30.04R
MALTA            N/A     59  45  59 SE3         N/A

FORT PECK REPORTS


CITY           SKY/WX    TMP DP  RH WIND       PRES   REMARKS
FORT PECK        N/A     65  43  44 E17         N/A
THE PINES        N/A     64  42  44 E5          N/A

SOUTHEAST MONTANA


CITY           SKY/WX    TMP DP  RH WIND       PRES   REMARKS
BILLINGS       CLOUDY    58  45  62 E9        29.95R
MILES CITY     MOCLDY    60  44  55 SE12      29.99R
BAKER          MOCLDY    52  38  58 SE7       30.06R
LIVINGSTON     MOCLDY    54  43  66 SE9       29.95R

CENTRAL MONTANA


CITY           SKY/WX    TMP DP  RH WIND       PRES   REMARKS
HAVRE          MOCLDY    58  49  72 E6        29.96R
LEWISTOWN      CLOUDY    54  46  74 E6        29.97R
GREAT FALLS    CLEAR     52  46  80 NE8       29.95R
CUT BANK       CLEAR     54  36  50 NE8       29.99R
HELENA         PTCLDY    59  43  55 SE5       29.92S
BUTTE          CLOUDY    54  41  61 SW5       29.98R
BOZEMAN        MOCLDY    52  43  71 S8        29.94R

WESTERN MONTANA


CITY           SKY/WX    TMP DP  RH WIND       PRES   REMARKS
MISSOULA       CLOUDY    68  35  29 E10       29.88R
KALISPELL      NOT AVBL

NORTH DAKOTA


CITY           SKY/WX    TMP DP  RH WIND       PRES   REMARKS
WILLISTON      PTCLDY    62  37  39 SE5       30.06R
DICKINSON      MOCLDY    50  34  54 SE9       30.08R
MINOT          MOCLDY    60  40  47 SE5       30.08R
BISMARCK       PTCLDY    62  39  42 S9        30.11R

SOUTHERN SASKATCHEWAN


CITY           SKY/WX    TMP DP  RH WIND       PRES   REMARKS
REGINA         PTCLDY    64  36  34 SE6       30.05R
ESTEVAN        PTCLDY    55  41  58 S8        30.07S
SWIFT CURRENT  CLEAR     61  32  33 E10       30.03R



USA.gov is the U.S. government's official web portal to all federal, state and local government web resources and services.